Weather History for CYRB - May, 2013

Change the Weather History Date:

Sunday, May 19, 2013

  Actual Average Record
Temperature  
Mean Temperature 20 °F -  
Max Temperature 24 °F 16 °F 32 °F (2005)
Min Temperature 17 °F 8 °F 3 °F (2012)
Degree Days  
Heating Degree Days 44    
Moisture  
Dew Point 18 °F    
Average Humidity 88    
Maximum Humidity 100    
Minimum Humidity 77    
Precipitation  
Precipitation 0.00 in - - ()
Sea Level Pressure  
Sea Level Pressure 30.29 in    
Wind  
Wind Speed 4 mph ()    
Max Wind Speed 10 mph    
Max Gust Speed -    
Visibility 12.0 miles    
Events Fog , Snow    
Averages and records for this station are not official NWS values.
T = Trace of Precipitation, MM = Missing Value Source: Averaged Metar Reports

Daily Weather History Graph

Daily Weather History Graph

Search for Another Location

Airport or City:

Trip Planner

Search our weather history database for the weather conditions in past years. The results will help you decide how hot, cold, wet, or windy it might be!

Date:

Astronomy

Dec. 31, 1969 Rise Set
Actual Time Sun does not set Sun does not set
Civil Twilight Sun does not set Sun does not set
Nautical Twilight Sun does not set Sun does not set
Astronomical Twilight Sun does not set Sun does not set
Moon 2:32 PM CDT (5/19) 2:54 AM CDT (5/19)
Length of Visible Light 24h 00m
Length of Day
24h 00m
Waxing Gibbous, 65% of the Moon is Illuminated
May 19
Waxing Gibbous
May 24
Full
May 31
Last Quarter
Jun 8
New
Jun 16
First Quarter

Hourly Weather History & Observations

Time (CDT) Temp. Windchill Dew Point Humidity Pressure Visibility Wind Dir Wind Speed Gust Speed Precip Events Conditions
12:00 AM 17.6 °F - 14.0 °F 86% 30.23 in 15.0 mi SSE 2.3 mph - N/A   Mostly Cloudy
1:00 AM 18 °F - 14 °F 77% 30.23 in 15 mi Calm Calm - -   Overcast
1:00 AM 17.6 °F - 14.0 °F 86% 30.23 in 15.0 mi Calm Calm - N/A   Overcast
2:00 AM 17.6 °F - 14.0 °F 86% 30.24 in 15.0 mi NNW 2.3 mph - N/A   Overcast
4:00 AM 17.6 °F 12.3 °F 12.2 °F 79% 30.25 in 15.0 mi NNW 3.5 mph - N/A   Mostly Cloudy
5:00 AM 19.4 °F 14.3 °F 14.0 °F 80% 30.26 in 15.0 mi North 3.5 mph - N/A   Mostly Cloudy
5:24 AM - - - N/A% - 15.0 mi NW 3.5 mph - N/A   Unknown
6:00 AM 19.4 °F - 14.0 °F 80% 30.27 in 15.0 mi NW 2.3 mph - N/A Snow Light Snow
7:00 AM 19.4 °F 14.3 °F 15.8 °F 86% 30.27 in 12.0 mi NW 3.5 mph - N/A Snow Light Snow
8:00 AM 19.4 °F - 15.8 °F 86% 30.27 in 12.0 mi NW 2.3 mph - N/A Snow Light Snow
8:42 AM - - - N/A% - 10.0 mi NW 2.3 mph - N/A   Unknown
9:00 AM 19.4 °F - 15.8 °F 86% 30.27 in 10.0 mi Calm Calm - N/A Snow Light Snow
10:00 AM 19.4 °F 14.3 °F 19.4 °F 100% 30.27 in 10.0 mi NNW 3.5 mph - N/A Snow Light Snow
11:00 AM 21.2 °F 16.4 °F 19.4 °F 93% 30.28 in 6.0 mi NW 3.5 mph - N/A Snow Light Snow
12:00 PM 21.2 °F 13.6 °F 19.4 °F 93% 30.28 in 8.0 mi North 5.8 mph - N/A Snow Light Snow
12:50 PM - - - N/A% - 12.0 mi NNW 3.5 mph - N/A   Partly Cloudy
1:00 PM 22 °F - 19 °F 82% 30.29 in 15 mi NNW 3.5 mph - - Snow Light Snow
1:00 PM 21.2 °F 16.4 °F 19.4 °F 93% 30.29 in 15.0 mi NNW 3.5 mph - N/A   Partly Cloudy
2:00 PM 23.0 °F 15.8 °F 19.4 °F 86% 30.30 in 15.0 mi North 5.8 mph - N/A   Mostly Cloudy
2:35 PM - - - N/A% - 15.0 mi North 8.1 mph - N/A   Overcast
3:00 PM 23.0 °F 15.8 °F 19.4 °F 86% 30.30 in 15.0 mi North 5.8 mph - N/A   Overcast
4:00 PM 23.0 °F 13.9 °F 21.2 °F 93% 30.31 in 15.0 mi NW 8.1 mph - N/A   Overcast
5:00 PM 23.0 °F 13.9 °F 21.2 °F 93% 30.32 in 15.0 mi North 8.1 mph - N/A   Overcast
6:00 PM 23.0 °F 13.9 °F 21.2 °F 93% 30.32 in 15.0 mi NW 8.1 mph - N/A   Overcast
6:53 PM - - - N/A% - 15.0 mi North 8.1 mph - N/A   Overcast
7:00 PM 22 °F - 20 °F 89% 30.34 in 15 mi North 9.2 mph - -   Overcast
7:00 PM 23.0 °F 13.1 °F 19.4 °F 86% 30.34 in 15.0 mi North 9.2 mph - N/A   Overcast
8:00 PM 21.2 °F 10.9 °F 19.4 °F 93% 30.35 in 15.0 mi NW 9.2 mph - N/A   Overcast
8:37 PM - - - N/A% - 15.0 mi NW 9.2 mph - N/A   Overcast
9:00 PM 21.2 °F 10.9 °F 19.4 °F 93% 30.34 in 15.0 mi NW 9.2 mph - N/A   Overcast
10:00 PM 21.2 °F 10.1 °F 19.4 °F 93% 30.34 in 15.0 mi NNW 10.4 mph - N/A   Overcast
10:35 PM - - - N/A% - 3.0 mi NW 10.4 mph - N/A   Overcast
10:40 PM - - - N/A% - 1.0 mi NNW 8.1 mph - N/A   Overcast
11:00 PM 19.4 °F 9.5 °F 17.6 °F 93% 30.34 in 1.0 mi North 8.1 mph - N/A   Overcast
11:16 PM - - - N/A% - 0.8 mi North 8.1 mph - N/A   Overcast
11:23 PM - - - N/A% - 0.5 mi North 5.8 mph - N/A Fog Light Freezing Fog